Weather History for KDFW - August, 2013

Change the Weather History Date:

Saturday, August 3, 2013

  Actual Average Record
Temperature  
Mean Temperature 91 °F 86 °F  
Max Temperature 101 °F 97 °F 109 °F (2011)
Min Temperature 80 °F 76 °F 64 °F (1973)
Degree Days  
Heating Degree Days 0 0  
Month to date heating degree days 0 0  
Since 1 June heating degree days 0 0  
Since 1 July heating degree days 0 0  
Cooling Degree Days 26 21  
Month to date cooling degree days 79 63  
Year to date cooling degree days 1615 1607  
Since 1 June cooling degree days 1226 1185  
Growing Degree Days 40 (Base 50)    
Moisture  
Dew Point 64 °F    
Average Humidity 45    
Maximum Humidity 63    
Minimum Humidity 27    
Precipitation  
Precipitation 0.00 in 0.05 in 1.45 in (1986)
Month to date precipitation 0.00 0.15  
Year to date precipitation 17.35 22.35  
Sea Level Pressure  
Sea Level Pressure 29.93 in    
Wind  
Wind Speed 12 mph (South)    
Max Wind Speed 21 mph    
Max Gust Speed 25 mph    
Visibility 10 miles    
Events      
T = Trace of Precipitation, MM = Missing Value Source: NWS Daily Summary

Daily Weather History Graph

Daily Weather History Graph

Search for Another Location

Airport or City:

Trip Planner

Search our weather history database for the weather conditions in past years. The results will help you decide how hot, cold, wet, or windy it might be!

Date:

Astronomy

Aug. 03, 2013 Rise Set
Actual Time 6:43 AM CDT 8:24 PM CDT
Civil Twilight 6:16 AM CDT 8:51 PM CDT
Nautical Twilight 5:44 AM CDT 9:23 PM CDT
Astronomical Twilight 5:10 AM CDT 9:57 PM CDT
Moon 3:55 AM CDT (8/3) 6:06 PM CDT (8/3)
Length of Visible Light 14h 35m
Length of Day
13h 41m
Waning Crescent, 9% of the Moon is Illuminated
Aug 3
Waning Crescent
Aug 6
New
Aug 14
First Quarter
Aug 20
Full
Aug 28
Last Quarter

Hourly Weather History & Observations

Time (CDT) Temp. Heat Index Dew Point Humidity Pressure Visibility Wind Dir Wind Speed Gust Speed Precip Events Conditions
12:53 AM 88.0 °F 88.7 °F 63.0 °F 43% 29.88 in 10.0 mi South 10.4 mph - N/A   Clear
1:53 AM 87.1 °F 88.9 °F 64.9 °F 48% 29.90 in 10.0 mi South 13.8 mph - N/A   Clear
2:53 AM 86.0 °F 88.2 °F 66.0 °F 51% 29.89 in 10.0 mi South 12.7 mph - N/A   Clear
3:53 AM 84.9 °F 87.1 °F 66.0 °F 53% 29.89 in 10.0 mi South 17.3 mph - N/A   Clear
4:53 AM 82.9 °F 85.4 °F 66.9 °F 58% 29.90 in 10.0 mi SSW 12.7 mph - N/A   Partly Cloudy
5:53 AM 82.0 °F 84.5 °F 66.9 °F 60% 29.91 in 10.0 mi South 11.5 mph - N/A   Partly Cloudy
6:53 AM 80.1 °F 82.3 °F 66.9 °F 64% 29.93 in 10.0 mi South 11.5 mph - N/A   Mostly Cloudy
7:53 AM 82.0 °F 84.9 °F 68.0 °F 62% 29.94 in 10.0 mi South 13.8 mph - N/A   Mostly Cloudy
8:53 AM 84.0 °F 87.0 °F 68.0 °F 58% 29.96 in 10.0 mi SSW 11.5 mph - N/A   Mostly Cloudy
9:53 AM 88.0 °F 91.4 °F 68.0 °F 51% 29.97 in 10.0 mi SW 12.7 mph - N/A   Mostly Cloudy
10:53 AM 91.0 °F 93.8 °F 66.0 °F 44% 29.97 in 10.0 mi South 15.0 mph - N/A   Mostly Cloudy
11:53 AM 93.0 °F 95.0 °F 64.9 °F 39% 29.97 in 10.0 mi SSW 12.7 mph - N/A   Mostly Cloudy
12:53 PM 96.1 °F 98.8 °F 64.9 °F 36% 29.96 in 10.0 mi South 10.4 mph - N/A   Mostly Cloudy
1:53 PM 98.1 °F 99.1 °F 62.1 °F 30% 29.94 in 10.0 mi SSE 8.1 mph 20.7 mph N/A   Scattered Clouds
2:53 PM 99.0 °F 100.5 °F 62.1 °F 30% 29.93 in 10.0 mi South 10.4 mph - N/A   Scattered Clouds
3:53 PM 100.0 °F 101.2 °F 61.0 °F 28% 29.92 in 10.0 mi South 11.5 mph - N/A   Scattered Clouds
4:53 PM 100.0 °F 101.2 °F 61.0 °F 28% 29.91 in 10.0 mi SSE 10.4 mph - N/A   Scattered Clouds
5:53 PM 100.0 °F 100.7 °F 60.1 °F 27% 29.90 in 10.0 mi South 10.4 mph 19.6 mph N/A   Scattered Clouds
6:53 PM 99.0 °F 99.5 °F 61.0 °F 28% 29.89 in 10.0 mi SSE 13.8 mph 20.7 mph N/A   Scattered Clouds
7:53 PM 96.1 °F 96.4 °F 61.0 °F 31% 29.90 in 10.0 mi SE 15.0 mph - N/A   Mostly Cloudy
8:53 PM 91.9 °F 91.5 °F 60.1 °F 34% 29.91 in 10.0 mi SSE 6.9 mph - N/A   Mostly Cloudy
9:53 PM 90.0 °F 90.0 °F 61.0 °F 38% 29.95 in 10.0 mi SSE 8.1 mph - N/A   Mostly Cloudy
10:53 PM 86.0 °F 86.3 °F 62.1 °F 44% 29.98 in 10.0 mi SE 6.9 mph - N/A   Mostly Cloudy
11:53 PM 87.1 °F 88.3 °F 64.0 °F 46% 29.98 in 10.0 mi ESE 10.4 mph - N/A   Mostly Cloudy